Home   Weather   Milan   Past weeks
Flag for USA

Past Weather in Milan, Washington, USA — Yesterday and Last 2 Weeks

Currently: 21 °F. Passing clouds. (Weather station: Felts Field, USA). See more current weather

Past Weather in Milan — Graph

°F

Milan Temperature Yesterday

Maximum temperature yesterday: 36 °F (at 12:53 am)
Minimum temperature yesterday: 23 °F (at 11:53 pm)
Average temperature yesterday: 32 °F

High & Low Weather Summary for the Past Weeks

 TemperatureHumidityPressure
High40 °F (Nov 27, 8:53 am)89% (Nov 23, 8:01 pm)30.71 "Hg (Nov 23, 8:01 pm)
Low10 °F (Nov 29, 6:53 am)32% (Nov 17, 10:53 am)29.48 "Hg (Dec 1, 1:14 am)
Average29 °F78%30.17 "Hg
* Reported Nov 17 12:53 am — Dec 2 12:53 am, Milan. Weather by CustomWeather, © 2022

Note: Actual official high and low records may vary slightly from our data, if they occured in-between our weather recording intervals... More about our weather records

Milan Weather History for the Previous 24 Hours

Scroll right to see more
 ConditionsComfort  
Time TempWeatherWind HumidityBarometerVisibility
12:53 am
Fri, Dec 2
20 °FIce fog.No wind85%29.93 "Hg6 mi
11:53 pm
Thu, Dec 1
23 °FClear.3 mph81%29.90 "Hg10 mi
11:25 pm24 °FPassing clouds.3 mph77%29.83 "Hg10 mi
10:53 pm24 °FPassing clouds.No wind77%29.87 "Hg10 mi
9:53 pm25 °FOvercast.No wind78%29.84 "Hg10 mi
8:53 pm25 °FPassing clouds.3 mph81%29.81 "Hg10 mi
8:03 pm28 °FPassing clouds.6 mph78%29.74 "Hg10 mi
7:53 pm28 °FPassing clouds.5 mph78%29.78 "Hg10 mi
7:12 pm28 °FMostly cloudy.7 mph78%29.72 "Hg10 mi
6:53 pm28 °FMostly cloudy.9 mph78%29.75 "Hg10 mi
5:53 pm30 °FOvercast.9 mph79%29.72 "Hg10 mi
4:53 pm30 °FLight snow. Overcast.9 mph79%29.69 "Hg10 mi
2:53 pm31 °FOvercast.12 mph79%29.64 "Hg10 mi
1:53 pm32 °FMostly cloudy.7 mph75%29.62 "Hg10 mi
12:53 pm33 °FMostly cloudy.7 mph78%29.60 "Hg10 mi
11:53 am34 °FMostly cloudy.6 mph79%29.59 "Hg10 mi
10:53 am34 °FOvercast.6 mph82%29.58 "Hg10 mi
10:04 am34 °FOvercast.No wind82%29.55 "Hg10 mi
9:53 am35 °FOvercast.5 mph78%29.58 "Hg10 mi
9:05 am35 °FOvercast.3 mph78%29.54 "Hg10 mi
8:18 am34 °FOvercast.3 mph82%29.53 "Hg10 mi
7:53 am34 °FOvercast.6 mph82%29.56 "Hg10 mi
6:53 am34 °FOvercast.6 mph82%29.54 "Hg10 mi
5:53 am34 °FOvercast.8 mph82%29.52 "Hg10 mi
4:53 am34 °FMostly cloudy.5 mph82%29.52 "Hg10 mi
4:42 am34 °FPartly cloudy.5 mph85%29.49 "Hg10 mi
3:53 am35 °FPassing clouds.No wind78%29.52 "Hg10 mi
3:16 am35 °FOvercast.6 mph82%29.49 "Hg10 mi
3:03 am35 °FOvercast.8 mph82%29.50 "Hg10 mi
2:53 am35 °FOvercast.7 mph82%29.53 "Hg10 mi
Weather by CustomWeather, © 2022

See weather overview